Weather Roundup
Issued by NWS

Home | Current Version | Previous Version | Text Only | Print | Product List | Glossary On
Versions: 1 2 3 4 5 6 7 8 9 10 11 12 13 14 15 16 17 18 19 20 21 22 23 24 25 26 27 28 29 30 31 32 33 34 35 36 37 38 39 40 41 42 43 44 45 46 47 48 49 50
000
NZUS93 KARX 032010
HRRWXR

CURRENT HOURLY OBSERVATIONS ACROSS
MUCH OF THE UPPER MISSISSIPPI VALLEY
NATIONAL WEATHER SERVICE LA CROSSE WI
300 PM CDT SUN MAY 03 2015


...SOUTHEAST MINNESOTA...


CITY           SKY/WX    TMP DP  RH WIND       PRES   REMARKS
ROCHESTER      SUNNY     81  51  35 SW7       29.80F
ROCHESTER/MAYO FAIR      82  50  33 S6        29.79S
WINONA         SUNNY     81  50  34 SW5       29.77F
AUSTIN         MOSUNNY   81  52  36 S5        29.78F
ALBERT LEA     MOSUNNY   82  48  30 SW5       29.77F
DODGE CENTER   SUNNY     81  50  34 W5        29.79S
PRESTON        SUNNY     81  49  33 S7        29.81S
OWATONNA       SUNNY     82  46  28 SW8       29.77F
FARIBAULT      SUNNY     84  52  32 W7        29.77F
$$

...ELSEWHERE IN MINNESOTA...


CITY           SKY/WX    TMP DP  RH WIND       PRES   REMARKS
MINNEAPOLIS    MOSUNNY   81  54  39 VRB3      29.75F
INTNL FALLS    CLOUDY    64  31  28 NW10G24   29.84R
DULUTH         CLOUDY    73  34  23 NW22G31   29.80R
RED WING       SUNNY     82  52  34 SE8       29.75F
REDWOOD FALLS  MOSUNNY   81  54  39 N16       29.78R
MANKATO        SUNNY     82  52  34 S8        29.75F
WORTHINGTON    SUNNY     82  50  32 E3        29.77S
FAIRMONT       MOSUNNY   84  46  26 SW7       29.76S
$$

...SOUTHWEST WISCONSIN...


CITY           SKY/WX    TMP DP  RH WIND       PRES   REMARKS
LA CROSSE      SUNNY     84  52  33 S12       29.79F
PRAIRIE DU CHI SUNNY     78  53  41 SE9G17    29.82S
BOSCOBEL       SUNNY     79  54  41 S9G20     29.84F
LONE ROCK      MOSUNNY   76  54  46 S15       29.86S
PLATTEVILLE    MOSUNNY   71  57  63 S21       29.89F
FORT MC COY    PTSUNNY   81  49  33 W12       29.82S
CAMP DOUGLAS   PTSUNNY   81  54  39 SW9       29.81F
VIROQUA        FAIR      78  51  39 SW15G22   29.84S
WIS DELLS      NOT AVBL
$$

...ELSEWHERE IN WISCONSIN...


CITY           SKY/WX    TMP DP  RH WIND       PRES   REMARKS
MILWAUKEE      PTSUNNY   76  51  41 SW18G26   29.90S
MADISON        PTSUNNY   74  55  51 S16G23    29.88S
GREEN BAY      MOSUNNY   77  53  43 S20G26    29.83S
EAU CLAIRE     SUNNY     78  53  41 VRB5      29.78F
BLACK RVR FLS  FAIR      80  49  33 W8        29.80S
MEDFORD        MOSUNNY   75  52  44 SW8       29.82S
WAUSAU         MOSUNNY   78  50  37 S13G21    29.79S
WIS RAPIDS     MOSUNNY   78  49  35 S15       29.82F
MARSHFIELD     MOSUNNY   79  52  38 S14       29.81S
RICE LAKE      MOSUNNY   78  48  34 SW5       29.80F
$$

...NORTHEAST IOWA...


CITY           SKY/WX    TMP DP  RH WIND       PRES   REMARKS
DECORAH        SUNNY     81  52  36 VRB7G16   29.81S
MASON CITY     SUNNY     85  54  34 S8        29.78F
CHARLES CITY   SUNNY     81  57  44 SW7G14    29.80F
OELWEIN        SUNNY     81  57  44 S17G23    29.83S
$$

...ELSEWHERE IN IOWA...


CITY           SKY/WX    TMP DP  RH WIND       PRES   REMARKS
DES MOINES     MOSUNNY   82  58  43 S17       29.79F
IOWA CITY      MOSUNNY   78  62  57 VRB5      29.85F
FORT DODGE     SUNNY     82  59  44 S9G18     29.77S
$$

...NORTHERN ILLINOIS...


CITY           SKY/WX    TMP DP  RH WIND       PRES   REMARKS
CHICAGO-OHARE  CLOUDY    73  50  44 S5        29.92F
CHICAGO-MIDWAY CLOUDY    79  45  29 S9        29.92F
MOLINE         PTSUNNY   79  58  48 W10G20    29.86F
ROCKFORD       LGT RAIN  65  57  75 NE5       29.94F
PEORIA         PTSUNNY   82  51  34 S14G26    29.91S
$$

NOTE: "FAIR" INDICATES FEW OR NO CLOUDS BELOW 12,000 FEET WITH NO
SIGNIFICANT WEATHER AND/OR OBSTRUCTIONS TO VISIBILITY. WIND
SPEEDS ARE IN MILES-PER-HOUR.



USA.gov is the U.S. government's official web portal to all federal, state and local government web resources and services.